Home   Weather   Mason   Past weeks

Flag for USA Past Weather in Mason, Ohio, USA — Yesterday and Last 2 Weeks

Now
50 °F

Clear.


Feels Like: 50 °F
Forecast: 49 / 74 °F
Wind: No wind

Location: Butler County Regional Airport

Current Time: Apr 25, 2017 at 4:47:12 am

Latest Report: Apr 25, 2017 at 3:53 am


Visibility: 10 mi

Pressure: 29.80 "Hg

Humidity: 96%

Dew Point: 49 °F

Location of MasonLocation

Past Weather in Mason — Graph

°F

Mason Temperature Yesterday

Maximum temperature yesterday: 74 °F (at 2:53 pm)
Minimum temperature yesterday: 40 °F (at 4:53 am)
Average temperature yesterday: 59 °F

High & Low Weather Summary for the Past Weeks

 TemperatureHumidityPressure
High84 °F (Apr 15, 2:53 pm)100% (Apr 11, 8:12 am)30.40 "Hg (Apr 11, 8:12 am)
Low40 °F (Apr 12, 6:53 am)25% (Apr 13, 3:53 pm)29.81 "Hg (Apr 25, 2:53 am)
Average63 °F67%30.10 "Hg
* Reported Apr 10 2:53 am — Apr 25 2:53 am, Mason, Weather by CustomWeather, © 2017

Note: Actual official high and low records may vary slightly from our data, if they occured in-between our weather recording intervals... More about our weather records

Advertising

Mason Weather History for the Previous 24 Hours

Scroll right to see more
 ConditionsComfort  
Time TempWeatherWind HumidityBarometerVisibility
2:53 am
Tue, Apr 25
52 °FClear.No wind93%29.81 "Hg10 mi
1:53 am57 °FPassing clouds.5 mph83%29.82 "Hg10 mi
12:53 am59 °FOvercast.7 mph81%29.82 "Hg10 mi
11:53 pm
Mon, Apr 24
61 °FOvercast.6 mph78%29.82 "Hg10 mi
10:53 pm62 °FOvercast.13 mph75%29.83 "Hg10 mi
9:53 pm63 °FOvercast.7 mph70%29.82 "Hg10 mi
8:53 pm63 °FPassing clouds.9 mph70%29.82 "Hg10 mi
7:53 pm67 °FOvercast.10 mph61%29.82 "Hg10 mi
6:53 pm68 °FOvercast.13 mph57%29.82 "Hg10 mi
5:53 pm71 °FSunny.15 mph55%29.81 "Hg10 mi
4:53 pm73 °FOvercast.15 mph51%29.82 "Hg10 mi
3:53 pm73 °FOvercast.17 mph51%29.84 "Hg10 mi
2:53 pm74 °FSunny.15 mph50%29.86 "Hg10 mi
1:53 pm72 °FSunny.15 mph52%29.88 "Hg10 mi
12:53 pm70 °FSunny.8 mph47%29.91 "Hg10 mi
11:53 am67 °FSunny.6 mph45%29.93 "Hg10 mi
10:53 am63 °FSunny.8 mph47%29.94 "Hg10 mi
9:53 am59 °FSunny.14 mph51%29.96 "Hg10 mi
8:53 am54 °FSunny.10 mph59%29.96 "Hg10 mi
7:53 am49 °FSunny.3 mph71%29.96 "Hg10 mi
6:53 am42 °FSunny.No wind89%29.95 "Hg10 mi
5:53 am40 °FClear.No wind93%29.95 "Hg10 mi
4:53 am40 °FClear.No wind89%29.94 "Hg10 mi
Weather by CustomWeather, © 2017

See weather overviewHow to use our weather pages